Location: Navarre
(52.9016°N, 113.4144°W)
Time: 03:04:18
(UTC+00:00)

Envisat - Pass Details

Date: 06 December 2023
Orbit: 762 x 764 km, 98.3° (Epoch: 22 February)

Event Time Altitude Azimuth Distance (km) Brightness Sun altitude
Rises 12:37:32 0° 8° (N) 3,245 6.3 -24.8°
Reaches altitude 10° 12:40:07 10° 357° (N) 2,315 5.4 -24.4°
Enters shadow 12:40:39 13° 354° (N) 2,140 5.2 -24.3°
